Time,TemperatureF,DewpointF,PressureIn,WindDirection,WindDirectionDegrees,WindSpeedMPH,WindSpeedGustMPH,Humidity,HourlyPrecipIn,Conditions,Clouds,dailyrainin,SoftwareType,DateUTC
2013-04-29 00:01:00,56.4,52.9,29.84,WNW,293,0.0,0.0,88,0.00,,,0.16,WUHU216HW,2013-04-29 04:01:00,
2013-04-29 00:06:00,56.4,52.9,29.84,West,270,0.0,0.0,88,0.00,,,0.00,WUHU216HW,2013-04-29 04:06:00,
2013-04-29 00:11:00,56.4,52.9,29.84,WSW,248,0.0,0.0,88,0.00,,,0.00,WUHU216HW,2013-04-29 04:11:00,
2013-04-29 00:16:00,56.4,52.9,29.83,NW,315,0.0,0.0,88,0.00,,,0.00,WUHU216HW,2013-04-29 04:16:00,
2013-04-29 00:21:00,56.4,52.9,29.83,WNW,293,0.0,0.0,88,0.00,,,0.00,WUHU216HW,2013-04-29 04:21:00,
2013-04-29 00:26:00,56.3,52.7,29.84,WNW,293,0.0,0.0,88,0.00,,,0.00,WUHU216HW,2013-04-29 04:26:00,
2013-04-29 00:31:00,56.3,52.7,29.84,WNW,293,0.0,0.0,88,0.00,,,0.00,WUHU216HW,2013-04-29 04:31:00,
2013-04-29 00:36:00,56.3,52.7,29.83,West,270,0.0,0.0,88,0.00,,,0.00,WUHU216HW,2013-04-29 04:36:00,
2013-04-29 00:41:00,56.3,52.7,29.83,West,270,0.0,0.0,88,0.00,,,0.00,WUHU216HW,2013-04-29 04:41:00,
2013-04-29 00:46:00,56.3,52.7,29.84,West,270,0.0,0.0,88,0.00,,,0.00,WUHU216HW,2013-04-29 04:46:00,
2013-04-29 00:51:00,56.3,52.7,29.83,WSW,248,0.0,0.0,88,0.00,,,0.00,WUHU216HW,2013-04-29 04:51:00,
2013-04-29 00:56:00,56.1,52.5,29.83,WNW,293,0.0,0.8,88,0.00,,,0.00,WUHU216HW,2013-04-29 04:56:00,
2013-04-29 01:01:00,56.1,52.5,29.83,SE,135,0.0,0.8,88,0.00,,,0.00,WUHU216HW,2013-04-29 05:01:00,
2013-04-29 01:06:00,56.1,52.5,29.83,West,270,0.0,0.0,88,0.00,,,0.00,WUHU216HW,2013-04-29 05:06:00,
2013-04-29 01:11:00,56.1,52.5,29.83,West,270,4.2,4.2,88,0.00,,,0.00,WUHU216HW,2013-04-29 05:11:00,
2013-04-29 01:16:00,56.1,52.5,29.83,West,270,0.0,4.2,88,0.00,,,0.00,WUHU216HW,2013-04-29 05:16:00,
2013-04-29 01:21:00,56.1,52.5,29.83,West,270,3.1,4.2,88,0.00,,,0.00,WUHU216HW,2013-04-29 05:21:00,
2013-04-29 01:26:00,56.1,52.9,29.84,NW,315,0.0,3.1,89,0.00,,,0.00,WUHU216HW,2013-04-29 05:26:00,
2013-04-29 01:31:00,56.1,52.9,29.84,NW,315,1.3,1.3,89,0.00,,,0.00,WUHU216HW,2013-04-29 05:31:00,
2013-04-29 01:36:00,55.9,52.7,29.83,West,270,2.2,2.2,89,0.00,,,0.00,WUHU216HW,2013-04-29 05:36:00,
2013-04-29 01:41:00,55.9,52.7,29.83,WNW,293,0.0,2.2,89,0.00,,,0.00,WUHU216HW,2013-04-29 05:41:00,
2013-04-29 01:46:00,55.9,52.7,29.84,WSW,248,3.5,3.5,89,0.00,,,0.00,WUHU216HW,2013-04-29 05:46:00,
2013-04-29 01:51:00,55.9,52.7,29.84,NW,315,0.0,3.5,89,0.00,,,0.00,WUHU216HW,2013-04-29 05:51:00,
2013-04-29 01:56:00,55.9,52.7,29.84,West,270,0.0,3.5,89,0.00,,,0.00,WUHU216HW,2013-04-29 05:56:00,
2013-04-29 02:01:00,55.9,52.7,29.84,NW,315,0.0,0.0,89,0.00,,,0.00,WUHU216HW,2013-04-29 06:01:00,
2013-04-29 02:06:00,55.9,52.7,29.84,NW,315,0.0,0.0,89,0.00,,,0.00,WUHU216HW,2013-04-29 06:06:00,
2013-04-29 02:11:00,55.9,52.7,29.84,SW,225,0.0,0.0,89,0.00,,,0.00,WUHU216HW,2013-04-29 06:11:00,
2013-04-29 02:16:00,55.9,52.7,29.84,NW,315,0.0,0.0,89,0.00,,,0.00,WUHU216HW,2013-04-29 06:16:00,
2013-04-29 02:21:00,55.9,52.7,29.84,NW,315,0.0,0.0,89,0.00,,,0.00,WUHU216HW,2013-04-29 06:21:00,
2013-04-29 02:26:00,55.9,52.7,29.84,SW,225,0.0,1.7,89,0.00,,,0.00,WUHU216HW,2013-04-29 06:26:00,
2013-04-29 02:31:00,55.9,52.7,29.84,SW,225,0.0,1.7,89,0.00,,,0.00,WUHU216HW,2013-04-29 06:31:00,
2013-04-29 02:36:00,55.7,52.5,29.84,NW,315,0.0,0.0,89,0.00,,,0.00,WUHU216HW,2013-04-29 06:36:00,
2013-04-29 02:41:00,55.7,52.5,29.84,WSW,248,0.0,0.0,89,0.00,,,0.00,WUHU216HW,2013-04-29 06:41:00,
2013-04-29 02:46:00,55.7,52.5,29.84,WSW,248,0.0,0.0,89,0.00,,,0.00,WUHU216HW,2013-04-29 06:46:00,
2013-04-29 02:51:00,55.7,52.5,29.84,SSW,203,0.0,0.0,89,0.00,,,0.00,WUHU216HW,2013-04-29 06:51:00,
2013-04-29 02:56:00,55.7,52.5,29.84,SSW,203,0.0,0.0,89,0.00,,,0.00,WUHU216HW,2013-04-29 06:56:00,
2013-04-29 03:01:00,55.7,52.5,29.84,ESE,113,0.0,0.0,89,0.00,,,0.00,WUHU216HW,2013-04-29 07:01:00,
2013-04-29 03:06:00,55.7,52.5,29.84,South,180,0.0,0.0,89,0.00,,,0.00,WUHU216HW,2013-04-29 07:06:00,
2013-04-29 03:11:00,55.7,52.5,29.84,South,180,0.0,0.0,89,0.00,,,0.00,WUHU216HW,2013-04-29 07:11:00,
2013-04-29 03:16:00,55.7,52.5,29.84,WSW,248,0.0,0.0,89,0.00,,,0.00,WUHU216HW,2013-04-29 07:16:00,
2013-04-29 03:21:00,55.7,52.5,29.84,WSW,248,0.0,0.8,89,0.00,,,0.00,WUHU216HW,2013-04-29 07:21:00,
2013-04-29 03:26:00,55.5,52.3,29.84,West,270,0.0,0.8,89,0.00,,,0.00,WUHU216HW,2013-04-29 07:26:00,
2013-04-29 03:31:00,55.5,52.3,29.85,SSE,158,0.0,0.0,89,0.00,,,0.00,WUHU216HW,2013-04-29 07:31:00,
2013-04-29 03:36:00,55.5,52.3,29.85,SSW,203,0.0,0.0,89,0.00,,,0.00,WUHU216HW,2013-04-29 07:36:00,
2013-04-29 03:41:00,55.5,52.3,29.84,SSW,203,0.0,0.0,89,0.00,,,0.00,WUHU216HW,2013-04-29 07:41:00,
2013-04-29 03:46:00,55.5,52.3,29.84,SSW,203,0.0,0.0,89,0.00,,,0.00,WUHU216HW,2013-04-29 07:46:00,
2013-04-29 03:51:00,55.5,52.3,29.84,WSW,248,0.0,0.0,89,0.00,,,0.00,WUHU216HW,2013-04-29 07:51:00,
2013-04-29 03:56:00,55.5,52.3,29.85,West,270,0.0,0.0,89,0.00,,,0.00,WUHU216HW,2013-04-29 07:56:00,
2013-04-29 04:01:00,55.5,52.3,29.85,NW,315,0.0,0.0,89,0.00,,,0.00,WUHU216HW,2013-04-29 08:01:00,
2013-04-29 04:06:00,55.5,52.3,29.84,NW,315,0.0,0.0,89,0.00,,,0.00,WUHU216HW,2013-04-29 08:06:00,
2013-04-29 04:11:00,55.5,52.3,29.85,NW,315,0.0,0.0,89,0.00,,,0.00,WUHU216HW,2013-04-29 08:11:00,
2013-04-29 04:16:00,55.5,52.3,29.85,NNW,338,0.0,0.0,89,0.00,,,0.00,WUHU216HW,2013-04-29 08:16:00,
2013-04-29 04:21:00,55.4,52.1,29.85,NNW,338,0.0,0.0,89,0.00,,,0.00,WUHU216HW,2013-04-29 08:21:00,
2013-04-29 04:26:00,55.5,52.3,29.85,WNW,293,0.0,0.0,89,0.00,,,0.00,WUHU216HW,2013-04-29 08:26:00,
2013-04-29 04:31:00,55.4,52.1,29.85,West,270,0.0,0.0,89,0.00,,,0.00,WUHU216HW,2013-04-29 08:31:00,
2013-04-29 04:36:00,55.4,52.1,29.85,West,270,0.0,0.0,89,0.00,,,0.00,WUHU216HW,2013-04-29 08:36:00,
2013-04-29 04:41:00,55.4,52.1,29.85,West,270,0.0,0.0,89,0.00,,,0.00,WUHU216HW,2013-04-29 08:41:00,
2013-04-29 04:46:00,55.4,52.1,29.85,West,270,0.0,0.0,89,0.00,,,0.00,WUHU216HW,2013-04-29 08:46:00,
2013-04-29 04:51:00,55.4,52.1,29.85,West,270,0.0,0.0,89,0.00,,,0.00,WUHU216HW,2013-04-29 08:51:00,
2013-04-29 04:56:00,55.4,52.1,29.85,West,270,0.0,0.0,89,0.00,,,0.00,WUHU216HW,2013-04-29 08:56:00,
2013-04-29 05:01:00,55.4,52.1,29.85,West,270,0.0,0.0,89,0.00,,,0.00,WUHU216HW,2013-04-29 09:01:00,
2013-04-29 05:06:00,55.2,52.0,29.85,West,270,0.0,0.0,89,0.00,,,0.00,WUHU216HW,2013-04-29 09:06:00,
2013-04-29 05:11:00,55.2,52.0,29.86,SW,225,0.0,0.0,89,0.00,,,0.00,WUHU216HW,2013-04-29 09:11:00,
2013-04-29 05:16:00,55.2,52.0,29.86,WSW,248,0.0,0.0,89,0.00,,,0.00,WUHU216HW,2013-04-29 09:16:00,
2013-04-29 05:21:00,55.2,52.0,29.85,WNW,293,0.0,0.0,89,0.00,,,0.00,WUHU216HW,2013-04-29 09:21:00,
2013-04-29 05:26:00,55.2,52.0,29.86,WNW,293,0.0,0.0,89,0.00,,,0.00,WUHU216HW,2013-04-29 09:26:00,
2013-04-29 05:31:00,55.2,52.0,29.86,WNW,293,0.0,0.0,89,0.00,,,0.00,WUHU216HW,2013-04-29 09:31:00,
2013-04-29 05:36:00,55.2,52.0,29.86,WNW,293,0.0,0.0,89,0.00,,,0.00,WUHU216HW,2013-04-29 09:36:00,
2013-04-29 05:41:00,55.2,52.0,29.86,WNW,293,0.0,0.0,89,0.00,,,0.00,WUHU216HW,2013-04-29 09:41:00,
2013-04-29 05:46:00,55.2,52.0,29.86,WNW,293,0.0,0.0,89,0.00,,,0.00,WUHU216HW,2013-04-29 09:46:00,
2013-04-29 05:51:00,55.2,52.0,29.87,WNW,293,0.0,0.0,89,0.00,,,0.00,WUHU216HW,2013-04-29 09:51:00,
2013-04-29 05:56:00,55.2,52.0,29.87,WNW,293,0.0,0.0,89,0.00,,,0.00,WUHU216HW,2013-04-29 09:56:00,
2013-04-29 06:01:00,55.0,51.8,29.86,WNW,293,0.0,0.0,89,0.00,,,0.00,WUHU216HW,2013-04-29 10:01:00,
2013-04-29 06:06:00,55.0,51.8,29.87,WNW,293,0.0,0.0,89,0.00,,,0.00,WUHU216HW,2013-04-29 10:06:00,
2013-04-29 06:11:00,55.0,51.8,29.87,WNW,293,0.0,0.0,89,0.00,,,0.00,WUHU216HW,2013-04-29 10:11:00,
2013-04-29 06:16:00,55.0,51.8,29.87,WSW,248,0.0,0.0,89,0.00,,,0.00,WUHU216HW,2013-04-29 10:16:00,
2013-04-29 06:21:00,55.0,51.8,29.87,WSW,248,0.0,0.0,89,0.00,,,0.00,WUHU216HW,2013-04-29 10:21:00,
2013-04-29 06:26:00,55.0,51.8,29.87,WSW,248,0.0,0.0,89,0.00,,,0.00,WUHU216HW,2013-04-29 10:26:00,
2013-04-29 06:31:00,55.0,51.8,29.87,WSW,248,0.0,0.0,89,0.00,,,0.00,WUHU216HW,2013-04-29 10:31:00,
2013-04-29 06:36:00,55.0,51.8,29.88,WSW,248,0.0,0.0,89,0.00,,,0.00,WUHU216HW,2013-04-29 10:36:00,
2013-04-29 06:41:00,54.8,51.6,29.88,WSW,248,0.0,0.0,89,0.00,,,0.00,WUHU216HW,2013-04-29 10:41:00,
2013-04-29 06:46:00,54.8,51.6,29.87,WSW,248,0.0,0.0,89,0.00,,,0.00,WUHU216HW,2013-04-29 10:46:00,
2013-04-29 06:51:00,54.8,51.6,29.88,WSW,248,0.0,0.0,89,0.00,,,0.00,WUHU216HW,2013-04-29 10:51:00,
2013-04-29 06:56:00,54.6,51.4,29.88,WSW,248,0.0,0.0,89,0.00,,,0.00,WUHU216HW,2013-04-29 10:56:00,
2013-04-29 07:02:00,54.6,51.4,29.88,SSW,203,0.0,0.0,89,0.00,,,0.00,WUHU216HW,2013-04-29 11:02:00,
2013-04-29 07:07:00,54.6,51.4,29.88,SSW,203,0.0,0.0,89,0.00,,,0.00,WUHU216HW,2013-04-29 11:07:00,
2013-04-29 07:12:00,54.6,51.4,29.88,SSW,203,0.0,0.0,89,0.00,,,0.00,WUHU216HW,2013-04-29 11:12:00,
2013-04-29 07:17:00,54.6,51.4,29.88,SSW,203,0.0,0.0,89,0.00,,,0.00,WUHU216HW,2013-04-29 11:17:00,
2013-04-29 07:22:00,54.6,51.4,29.88,SSW,203,0.0,0.0,89,0.00,,,0.00,WUHU216HW,2013-04-29 11:22:00,
2013-04-29 07:27:00,54.6,51.4,29.89,SSW,203,0.0,0.0,89,0.00,,,0.00,WUHU216HW,2013-04-29 11:27:00,
2013-04-29 07:32:00,54.5,51.2,29.89,SSW,203,0.0,0.0,89,0.00,,,0.00,WUHU216HW,2013-04-29 11:32:00,
2013-04-29 07:37:00,54.5,51.2,29.90,SSW,203,0.0,0.0,89,0.00,,,0.00,WUHU216HW,2013-04-29 11:37:00,
2013-04-29 07:42:00,54.5,51.2,29.90,SSW,203,0.0,0.0,89,0.00,,,0.00,WUHU216HW,2013-04-29 11:42:00,
2013-04-29 07:47:00,54.5,51.2,29.90,SSW,203,0.0,0.0,89,0.00,,,0.00,WUHU216HW,2013-04-29 11:47:00,
2013-04-29 07:52:00,54.5,51.2,29.90,SSW,203,0.0,0.0,89,0.00,,,0.00,WUHU216HW,2013-04-29 11:52:00,
2013-04-29 07:57:00,54.5,51.2,29.90,SSW,203,0.0,0.0,89,0.00,,,0.00,WUHU216HW,2013-04-29 11:57:00,
2013-04-29 08:02:00,54.5,51.2,29.90,SSW,203,0.0,0.0,89,0.00,,,0.00,WUHU216HW,2013-04-29 12:02:00,
2013-04-29 08:07:00,54.6,51.4,29.90,SSW,203,0.0,0.0,89,0.00,,,0.00,WUHU216HW,2013-04-29 12:07:00,
2013-04-29 08:12:00,54.6,51.4,29.90,SSW,203,0.0,0.0,89,0.00,,,0.00,WUHU216HW,2013-04-29 12:12:00,
2013-04-29 08:17:00,54.6,51.4,29.90,SSW,203,0.0,0.0,89,0.00,,,0.00,WUHU216HW,2013-04-29 12:17:00,
2013-04-29 08:22:00,54.6,51.4,29.90,SSW,203,0.0,0.0,89,0.00,,,0.00,WUHU216HW,2013-04-29 12:22:00,
2013-04-29 08:27:00,54.6,51.4,29.90,SSW,203,0.0,0.0,89,0.00,,,0.00,WUHU216HW,2013-04-29 12:27:00,
2013-04-29 08:32:00,54.6,51.4,29.90,SSW,203,0.0,0.0,89,0.00,,,0.00,WUHU216HW,2013-04-29 12:32:00,
2013-04-29 08:37:00,54.6,51.4,29.91,SSW,203,0.0,0.0,89,0.00,,,0.00,WUHU216HW,2013-04-29 12:37:00,
2013-04-29 08:42:00,54.6,51.4,29.91,SSW,203,0.0,0.0,89,0.00,,,0.00,WUHU216HW,2013-04-29 12:42:00,
2013-04-29 08:47:00,54.8,51.4,29.91,SSW,203,0.0,0.0,89,0.00,,,0.00,WUHU216HW,2013-04-29 12:47:00,
2013-04-29 08:52:00,54.8,51.6,29.91,SSW,203,0.0,0.0,89,0.00,,,0.00,WUHU216HW,2013-04-29 12:52:00,
2013-04-29 08:57:00,55.0,51.8,29.91,South,180,0.0,0.0,89,0.00,,,0.00,WUHU216HW,2013-04-29 12:57:00,
2013-04-29 09:02:00,55.0,51.8,29.91,West,270,0.0,0.0,89,0.00,,,0.00,WUHU216HW,2013-04-29 13:02:00,
2013-04-29 09:07:00,55.0,51.8,29.91,West,270,0.0,0.0,89,0.00,,,0.00,WUHU216HW,2013-04-29 13:07:00,
2013-04-29 09:12:00,55.0,51.8,29.91,West,270,0.0,0.0,89,0.00,,,0.00,WUHU216HW,2013-04-29 13:12:00,
2013-04-29 09:17:00,55.2,51.8,29.91,West,270,0.0,0.0,89,0.00,,,0.00,WUHU216HW,2013-04-29 13:17:00,
2013-04-29 09:22:00,55.2,52.0,29.91,West,270,0.0,0.0,89,0.00,,,0.00,WUHU216HW,2013-04-29 13:22:00,
2013-04-29 09:27:00,55.2,52.0,29.91,West,270,0.0,0.0,89,0.00,,,0.00,WUHU216HW,2013-04-29 13:27:00,
2013-04-29 09:32:00,55.2,52.0,29.91,West,270,0.0,0.0,89,0.00,,,0.00,WUHU216HW,2013-04-29 13:32:00,
2013-04-29 09:37:00,55.2,52.0,29.91,NNW,338,0.0,0.0,89,0.00,,,0.00,WUHU216HW,2013-04-29 13:37:00,
2013-04-29 09:42:00,55.2,52.0,29.91,NNW,338,0.0,0.0,89,0.00,,,0.00,WUHU216HW,2013-04-29 13:42:00,
2013-04-29 09:47:00,55.2,52.0,29.91,NNW,338,0.0,0.0,89,0.00,,,0.00,WUHU216HW,2013-04-29 13:47:00,
2013-04-29 09:52:00,55.2,52.0,29.91,NNW,338,0.0,0.0,89,0.00,,,0.00,WUHU216HW,2013-04-29 13:52:00,
2013-04-29 09:57:00,55.2,52.0,29.91,NNW,338,0.0,0.0,89,0.00,,,0.00,WUHU216HW,2013-04-29 13:57:00,
2013-04-29 10:02:00,55.2,52.0,29.91,NW,315,0.0,0.0,89,0.00,,,0.00,WUHU216HW,2013-04-29 14:02:00,
2013-04-29 10:07:00,55.2,52.0,29.91,ESE,113,0.0,0.0,89,0.00,,,0.00,WUHU216HW,2013-04-29 14:07:00,
2013-04-29 10:12:00,55.2,52.0,29.91,ESE,113,0.0,0.0,89,0.00,,,0.00,WUHU216HW,2013-04-29 14:12:00,
2013-04-29 10:17:00,55.4,51.8,29.91,SW,225,0.0,0.0,88,0.00,,,0.00,WUHU216HW,2013-04-29 14:17:00,
2013-04-29 10:22:00,55.5,52.0,29.91,WSW,248,0.0,0.0,88,0.00,,,0.00,WUHU216HW,2013-04-29 14:22:00,
2013-04-29 10:27:00,55.5,52.0,29.91,South,180,0.0,0.0,88,0.00,,,0.00,WUHU216HW,2013-04-29 14:27:00,
2013-04-29 10:32:00,55.7,52.2,29.91,South,180,0.0,0.0,88,0.00,,,0.00,WUHU216HW,2013-04-29 14:32:00,
2013-04-29 10:37:00,55.5,52.0,29.92,SE,135,0.0,0.0,88,0.00,,,0.00,WUHU216HW,2013-04-29 14:37:00,
2013-04-29 10:42:00,55.7,52.2,29.92,SE,135,0.0,0.0,88,0.00,,,0.00,WUHU216HW,2013-04-29 14:42:00,
2013-04-29 10:47:00,55.7,52.2,29.92,South,180,0.0,0.0,88,0.00,,,0.00,WUHU216HW,2013-04-29 14:47:00,
2013-04-29 10:52:00,55.7,52.2,29.92,SE,135,0.0,0.0,88,0.00,,,0.00,WUHU216HW,2013-04-29 14:52:00,
2013-04-29 10:57:00,55.9,52.4,29.92,SSE,158,0.0,0.0,88,0.00,,,0.00,WUHU216HW,2013-04-29 14:57:00,
2013-04-29 11:02:00,55.9,52.4,29.92,WSW,248,0.0,0.0,88,0.00,,,0.00,WUHU216HW,2013-04-29 15:02:00,
2013-04-29 11:07:00,55.9,52.4,29.92,WSW,248,0.0,0.0,88,0.00,,,0.00,WUHU216HW,2013-04-29 15:07:00,
2013-04-29 11:12:00,56.1,52.5,29.92,WSW,248,0.0,0.0,88,0.00,,,0.00,WUHU216HW,2013-04-29 15:12:00,
2013-04-29 11:17:00,56.3,52.7,29.92,SE,135,0.0,0.0,88,0.00,,,0.00,WUHU216HW,2013-04-29 15:17:00,
2013-04-29 11:22:00,56.4,52.9,29.92,SE,135,0.0,0.0,88,0.00,,,0.00,WUHU216HW,2013-04-29 15:22:00,
2013-04-29 11:27:00,56.4,52.9,29.93,SE,135,0.0,0.0,88,0.00,,,0.00,WUHU216HW,2013-04-29 15:27:00,
2013-04-29 11:32:00,56.6,52.8,29.92,SE,135,2.2,2.2,87,0.00,,,0.00,WUHU216HW,2013-04-29 15:32:00,
2013-04-29 11:37:00,56.8,52.9,29.92,SE,135,0.0,2.2,87,0.00,,,0.00,WUHU216HW,2013-04-29 15:37:00,
2013-04-29 11:42:00,56.8,52.9,29.92,ESE,113,0.0,2.2,87,0.00,,,0.00,WUHU216HW,2013-04-29 15:42:00,
2013-04-29 11:47:00,57.0,53.1,29.93,SE,135,0.0,0.0,87,0.00,,,0.00,WUHU216HW,2013-04-29 15:47:00,
2013-04-29 11:52:00,57.0,53.1,29.92,ESE,113,0.0,0.0,87,0.00,,,0.00,WUHU216HW,2013-04-29 15:52:00,
2013-04-29 11:57:00,57.2,53.3,29.92,ESE,113,0.0,0.0,87,0.00,,,0.00,WUHU216HW,2013-04-29 15:57:00,
2013-04-29 12:02:00,57.3,53.5,29.92,ESE,113,0.0,0.0,87,0.00,,,0.00,WUHU216HW,2013-04-29 16:02:00,
2013-04-29 12:07:00,57.5,53.7,29.92,ESE,113,1.3,1.3,87,0.00,,,0.00,WUHU216HW,2013-04-29 16:07:00,
2013-04-29 12:12:00,57.7,53.5,29.92,South,180,0.0,1.3,86,0.00,,,0.00,WUHU216HW,2013-04-29 16:12:00,
2013-04-29 12:17:00,57.9,53.7,29.93,SE,135,0.0,1.3,86,0.00,,,0.00,WUHU216HW,2013-04-29 16:17:00,
2013-04-29 12:22:00,58.1,53.9,29.92,SE,135,2.4,2.4,86,0.00,,,0.00,WUHU216HW,2013-04-29 16:22:00,
2013-04-29 12:27:00,58.4,53.9,29.92,SE,135,2.4,2.4,85,0.00,,,0.00,WUHU216HW,2013-04-29 16:27:00,
2013-04-29 12:32:00,58.8,54.3,29.92,East,90,0.0,2.4,85,0.00,,,0.00,WUHU216HW,2013-04-29 16:32:00,
2013-04-29 12:37:00,59.1,54.6,29.92,WNW,293,0.0,0.0,85,0.00,,,0.00,WUHU216HW,2013-04-29 16:37:00,
2013-04-29 12:42:00,59.5,54.7,29.92,ESE,113,0.0,0.0,84,0.00,,,0.00,WUHU216HW,2013-04-29 16:42:00,
2013-04-29 12:47:00,60.0,55.2,29.92,ENE,68,0.0,0.0,84,0.00,,,0.00,WUHU216HW,2013-04-29 16:47:00,
2013-04-29 12:52:00,60.6,55.7,29.92,SE,135,0.0,0.0,84,0.00,,,0.00,WUHU216HW,2013-04-29 16:52:00,
2013-04-29 12:57:00,60.9,55.8,29.91,WNW,293,2.6,2.6,83,0.00,,,0.00,WUHU216HW,2013-04-29 16:57:00,
2013-04-29 13:02:00,61.5,56.3,29.91,SE,135,0.0,2.6,83,0.00,,,0.00,WUHU216HW,2013-04-29 17:02:00,
2013-04-29 13:07:00,61.8,56.3,29.91,NE,45,0.0,0.0,82,0.00,,,0.00,WUHU216HW,2013-04-29 17:07:00,
2013-04-29 13:12:00,62.4,56.8,29.91,SSE,158,0.0,2.2,82,0.00,,,0.00,WUHU216HW,2013-04-29 17:12:00,
2013-04-29 13:17:00,62.7,56.4,29.90,East,90,0.0,4.4,80,0.00,,,0.00,WUHU216HW,2013-04-29 17:17:00,
2013-04-29 13:22:00,62.7,56.4,29.90,ESE,113,0.0,4.4,80,0.00,,,0.00,WUHU216HW,2013-04-29 17:22:00,
2013-04-29 13:27:00,62.9,56.3,29.90,SSE,158,0.0,2.4,79,0.00,,,0.00,WUHU216HW,2013-04-29 17:27:00,
2013-04-29 13:32:00,62.9,55.9,29.90,South,180,0.0,2.4,78,0.00,,,0.00,WUHU216HW,2013-04-29 17:32:00,
2013-04-29 13:37:00,63.1,56.1,29.90,SSW,203,0.0,1.3,78,0.00,,,0.00,WUHU216HW,2013-04-29 17:37:00,
2013-04-29 13:42:00,63.3,56.3,29.89,SSE,158,0.0,1.1,78,0.00,,,0.00,WUHU216HW,2013-04-29 17:42:00,
2013-04-29 13:47:00,63.6,56.3,29.89,SE,135,0.0,1.1,77,0.00,,,0.00,WUHU216HW,2013-04-29 17:47:00,
2013-04-29 13:52:00,63.6,56.3,29.89,East,90,0.0,0.0,77,0.00,,,0.00,WUHU216HW,2013-04-29 17:52:00,
2013-04-29 13:57:00,63.6,55.9,29.89,East,90,0.0,0.0,76,0.00,,,0.00,WUHU216HW,2013-04-29 17:57:00,
2013-04-29 14:02:00,64.0,56.3,29.89,East,90,1.1,1.1,76,0.00,,,0.00,WUHU216HW,2013-04-29 18:02:00,
2013-04-29 14:07:00,64.0,56.3,29.89,SSE,158,0.0,1.1,76,0.00,,,0.00,WUHU216HW,2013-04-29 18:07:00,
2013-04-29 14:12:00,64.2,56.1,29.89,SE,135,0.0,3.1,75,0.00,,,0.00,WUHU216HW,2013-04-29 18:12:00,
2013-04-29 14:17:00,64.5,56.4,29.89,South,180,0.0,3.1,75,0.00,,,0.00,WUHU216HW,2013-04-29 18:17:00,
2013-04-29 14:22:00,64.7,55.9,29.89,South,180,0.0,4.0,73,0.00,,,0.00,WUHU216HW,2013-04-29 18:22:00,
2013-04-29 14:27:00,64.9,56.0,29.89,ESE,113,2.0,4.0,73,0.00,,,0.00,WUHU216HW,2013-04-29 18:27:00,
2013-04-29 14:32:00,65.3,56.4,29.88,SSE,158,0.0,2.0,73,0.00,,,0.00,WUHU216HW,2013-04-29 18:32:00,
2013-04-29 14:37:00,65.8,56.5,29.89,ENE,68,3.5,3.5,72,0.00,,,0.00,WUHU216HW,2013-04-29 18:37:00,
2013-04-29 14:42:00,65.8,56.5,29.89,South,180,0.0,3.5,72,0.00,,,0.00,WUHU216HW,2013-04-29 18:42:00,
2013-04-29 14:47:00,65.8,56.1,29.88,SSE,158,0.0,5.8,71,0.00,,,0.00,WUHU216HW,2013-04-29 18:47:00,
2013-04-29 14:52:00,65.8,56.1,29.88,SE,135,1.5,5.8,71,0.00,,,0.00,WUHU216HW,2013-04-29 18:52:00,
2013-04-29 14:57:00,66.0,56.3,29.88,ESE,113,0.0,1.5,71,0.00,,,0.00,WUHU216HW,2013-04-29 18:57:00,
2013-04-29 15:02:00,66.0,56.3,29.88,SE,135,1.3,1.3,71,0.00,,,0.00,WUHU216HW,2013-04-29 19:02:00,
2013-04-29 15:07:00,66.0,56.3,29.88,East,90,1.5,1.5,71,0.00,,,0.00,WUHU216HW,2013-04-29 19:07:00,
2013-04-29 15:12:00,66.3,56.3,29.87,SE,135,1.7,1.7,70,0.00,,,0.00,WUHU216HW,2013-04-29 19:12:00,
2013-04-29 15:17:00,66.7,56.6,29.87,ESE,113,0.0,1.7,70,0.00,,,0.00,WUHU216HW,2013-04-29 19:17:00,
2013-04-29 15:22:00,66.9,56.8,29.87,ENE,68,0.0,1.7,70,0.00,,,0.00,WUHU216HW,2013-04-29 19:22:00,
2013-04-29 15:27:00,67.6,57.1,29.87,East,90,0.0,0.0,69,0.00,,,0.00,WUHU216HW,2013-04-29 19:27:00,
2013-04-29 15:32:00,67.6,57.1,29.87,SE,135,1.5,1.5,69,0.00,,,0.00,WUHU216HW,2013-04-29 19:32:00,
2013-04-29 15:37:00,67.6,56.6,29.87,NW,315,0.0,1.5,68,0.00,,,0.00,WUHU216HW,2013-04-29 19:37:00,
2013-04-29 15:42:00,67.8,56.4,29.87,SE,135,2.0,3.5,67,0.00,,,0.00,WUHU216HW,2013-04-29 19:42:00,
2013-04-29 15:47:00,67.8,56.0,29.87,SSE,158,0.0,3.5,66,0.00,,,0.00,WUHU216HW,2013-04-29 19:47:00,
2013-04-29 15:52:00,67.8,56.0,29.86,SE,135,0.0,2.2,66,0.00,,,0.00,WUHU216HW,2013-04-29 19:52:00,
2013-04-29 15:57:00,68.1,56.3,29.86,SSW,203,3.1,5.8,66,0.00,,,0.00,WUHU216HW,2013-04-29 19:57:00,
2013-04-29 16:02:00,68.3,56.1,29.86,South,180,2.4,5.8,65,0.00,,,0.00,WUHU216HW,2013-04-29 20:02:00,
2013-04-29 16:07:00,68.3,55.6,29.86,SSE,158,0.0,3.3,65,0.00,,,0.00,WUHU216HW,2013-04-29 20:07:00,
2013-04-29 16:12:00,68.7,56.4,29.85,ESE,113,0.0,3.3,65,0.00,,,0.00,WUHU216HW,2013-04-29 20:12:00,
2013-04-29 16:17:00,68.9,56.6,29.86,ESE,113,0.0,3.1,65,0.00,,,0.00,WUHU216HW,2013-04-29 20:17:00,
2013-04-29 16:22:00,69.4,56.6,29.85,SSW,203,3.1,3.1,64,0.00,,,0.00,WUHU216HW,2013-04-29 20:22:00,
2013-04-29 16:27:00,69.9,57.2,29.85,ESE,113,0.4,3.1,64,0.00,,,0.00,WUHU216HW,2013-04-29 20:27:00,
2013-04-29 16:32:00,70.3,57.1,29.85,South,180,2.4,2.4,63,0.00,,,0.00,WUHU216HW,2013-04-29 20:32:00,
2013-04-29 16:37:00,70.3,56.7,29.85,ESE,113,0.0,2.6,62,0.00,,,0.00,WUHU216HW,2013-04-29 20:37:00,
2013-04-29 16:42:00,70.7,56.6,29.85,ESE,113,2.2,2.6,61,0.00,,,0.00,WUHU216HW,2013-04-29 20:42:00,
2013-04-29 16:47:00,70.8,56.7,29.85,SSE,158,0.0,2.2,61,0.00,,,0.00,WUHU216HW,2013-04-29 20:47:00,
2013-04-29 16:52:00,71.2,56.6,29.85,South,180,0.0,2.2,60,0.00,,,0.00,WUHU216HW,2013-04-29 20:52:00,
2013-04-29 16:57:00,71.2,56.6,29.84,NW,315,0.0,0.0,60,0.00,,,0.00,WUHU216HW,2013-04-29 20:57:00,
2013-04-29 17:02:00,71.4,56.3,29.84,SE,135,3.8,3.8,59,0.00,,,0.00,WUHU216HW,2013-04-29 21:02:00,
2013-04-29 17:07:00,71.4,56.3,29.84,SE,135,0.0,3.8,58,0.00,,,0.00,WUHU216HW,2013-04-29 21:07:00,
2013-04-29 17:12:00,71.2,55.6,29.84,SE,135,0.0,6.4,58,0.00,,,0.00,WUHU216HW,2013-04-29 21:12:00,
2013-04-29 17:17:00,71.2,56.1,29.83,SE,135,0.0,6.4,59,0.00,,,0.00,WUHU216HW,2013-04-29 21:17:00,
2013-04-29 17:22:00,71.2,55.6,29.83,SE,135,5.5,5.5,58,0.00,,,0.00,WUHU216HW,2013-04-29 21:22:00,
2013-04-29 17:27:00,71.4,55.8,29.84,ESE,113,0.0,5.5,58,0.00,,,0.00,WUHU216HW,2013-04-29 21:27:00,
2013-04-29 17:32:00,71.4,55.8,29.83,SE,135,0.0,5.5,58,0.00,,,0.00,WUHU216HW,2013-04-29 21:32:00,
2013-04-29 17:37:00,71.7,56.1,29.83,ESE,113,0.0,0.0,58,0.00,,,0.00,WUHU216HW,2013-04-29 21:37:00,
2013-04-29 17:42:00,71.4,55.8,29.83,South,180,5.1,5.1,58,0.00,,,0.00,WUHU216HW,2013-04-29 21:42:00,
2013-04-29 17:47:00,71.7,55.6,29.83,South,180,0.0,5.1,57,0.00,,,0.00,WUHU216HW,2013-04-29 21:47:00,
2013-04-29 17:52:00,71.6,55.1,29.83,ENE,68,0.0,5.1,56,0.00,,,0.00,WUHU216HW,2013-04-29 21:52:00,
2013-04-29 17:57:00,71.7,55.6,29.83,SW,225,3.8,3.8,57,0.00,,,0.00,WUHU216HW,2013-04-29 21:57:00,
2013-04-29 18:02:00,71.7,55.1,29.83,East,90,0.0,3.8,56,0.00,,,0.00,WUHU216HW,2013-04-29 22:02:00,
2013-04-29 18:07:00,71.7,55.1,29.82,East,90,0.0,3.8,56,0.00,,,0.00,WUHU216HW,2013-04-29 22:07:00,
2013-04-29 18:12:00,72.1,54.9,29.83,South,180,0.0,3.3,55,0.00,,,0.00,WUHU216HW,2013-04-29 22:12:00,
2013-04-29 18:17:00,72.1,54.9,29.83,SSW,203,0.0,4.0,55,0.00,,,0.00,WUHU216HW,2013-04-29 22:17:00,
2013-04-29 18:22:00,72.3,55.1,29.82,SE,135,0.0,4.0,55,0.00,,,0.00,WUHU216HW,2013-04-29 22:22:00,
2013-04-29 18:27:00,72.3,55.6,29.82,East,90,0.0,2.6,56,0.00,,,0.00,WUHU216HW,2013-04-29 22:27:00,
2013-04-29 18:32:00,72.8,56.1,29.82,ENE,68,0.0,0.0,56,0.00,,,0.00,WUHU216HW,2013-04-29 22:32:00,
2013-04-29 18:37:00,73.2,55.9,29.82,SSE,158,4.6,4.6,55,0.00,,,0.00,WUHU216HW,2013-04-29 22:37:00,
2013-04-29 18:42:00,73.2,55.9,29.82,SE,135,5.8,5.8,55,0.00,,,0.00,WUHU216HW,2013-04-29 22:42:00,
2013-04-29 18:47:00,73.0,55.7,29.82,SSE,158,0.0,5.8,55,0.00,,,0.00,WUHU216HW,2013-04-29 22:47:00,
2013-04-29 18:52:00,73.0,55.7,29.82,ENE,68,0.0,5.8,55,0.00,,,0.00,WUHU216HW,2013-04-29 22:52:00,
2013-04-29 18:57:00,72.8,56.1,29.82,SSE,158,0.0,1.5,56,0.00,,,0.00,WUHU216HW,2013-04-29 22:57:00,
2013-04-29 19:02:00,72.5,55.8,29.83,SE,135,0.0,0.0,56,0.00,,,0.00,WUHU216HW,2013-04-29 23:02:00,
2013-04-29 19:07:00,72.1,55.3,29.83,East,90,0.0,2.2,56,0.00,,,0.00,WUHU216HW,2013-04-29 23:07:00,
2013-04-29 19:12:00,71.7,55.1,29.82,ENE,68,0.0,2.2,56,0.00,,,0.00,WUHU216HW,2013-04-29 23:12:00,
2013-04-29 19:17:00,71.2,54.6,29.83,SSE,158,0.0,3.5,56,0.00,,,0.00,WUHU216HW,2013-04-29 23:17:00,
2013-04-29 19:22:00,70.8,54.5,29.83,ENE,68,0.0,3.5,56,0.00,,,0.00,WUHU216HW,2013-04-29 23:22:00,
2013-04-29 19:27:00,70.8,54.8,29.83,ENE,68,0.0,2.9,57,0.00,,,0.00,WUHU216HW,2013-04-29 23:27:00,
2013-04-29 19:32:00,70.7,54.6,29.83,ENE,68,0.0,0.0,57,0.00,,,0.00,WUHU216HW,2013-04-29 23:32:00,
2013-04-29 19:37:00,70.5,54.5,29.83,SSE,158,0.0,0.0,57,0.00,,,0.00,WUHU216HW,2013-04-29 23:37:00,
2013-04-29 19:42:00,70.1,54.7,29.83,SE,135,0.0,0.0,58,0.00,,,0.00,WUHU216HW,2013-04-29 23:42:00,
2013-04-29 19:47:00,70.1,54.7,29.83,SE,135,0.0,0.0,58,0.00,,,0.00,WUHU216HW,2013-04-29 23:47:00,
2013-04-29 19:53:00,69.9,54.2,29.83,SE,135,0.0,0.0,58,0.00,,,0.00,WUHU216HW,2013-04-29 23:53:00,
2013-04-29 19:58:00,69.6,54.2,29.83,SE,135,0.0,0.0,58,0.00,,,0.00,WUHU216HW,2013-04-29 23:58:00,
2013-04-29 20:03:00,69.4,54.5,29.83,SE,135,0.0,0.0,59,0.00,,,0.00,WUHU216HW,2013-04-30 00:03:00,
2013-04-29 20:08:00,69.0,54.1,29.83,SE,135,0.0,0.0,59,0.00,,,0.00,WUHU216HW,2013-04-30 00:08:00,
2013-04-29 20:13:00,68.7,54.3,29.83,SE,135,0.0,0.0,60,0.00,,,0.00,WUHU216HW,2013-04-30 00:13:00,
2013-04-29 20:18:00,68.7,54.3,29.83,SE,135,0.0,0.0,60,0.00,,,0.00,WUHU216HW,2013-04-30 00:18:00,
2013-04-29 20:23:00,68.1,54.1,29.83,SE,135,0.0,0.0,61,0.00,,,0.00,WUHU216HW,2013-04-30 00:23:00,
2013-04-29 20:28:00,67.8,54.2,29.83,SE,135,0.0,0.0,62,0.00,,,0.00,WUHU216HW,2013-04-30 00:28:00,
2013-04-29 20:33:00,67.6,54.1,29.83,SE,135,0.0,0.0,62,0.00,,,0.00,WUHU216HW,2013-04-30 00:33:00,
2013-04-29 20:38:00,67.1,53.7,29.83,SE,135,0.0,0.0,62,0.00,,,0.00,WUHU216HW,2013-04-30 00:38:00,
2013-04-29 20:43:00,66.7,53.2,29.83,SE,135,0.0,0.0,62,0.00,,,0.00,WUHU216HW,2013-04-30 00:43:00,
2013-04-29 20:48:00,66.3,53.3,29.83,SE,135,0.0,0.0,63,0.00,,,0.00,WUHU216HW,2013-04-30 00:48:00,
2013-04-29 20:53:00,65.8,52.8,29.83,SE,135,0.0,0.0,63,0.00,,,0.00,WUHU216HW,2013-04-30 00:53:00,
2013-04-29 20:58:00,65.4,52.9,29.83,SE,135,0.0,0.0,64,0.00,,,0.00,WUHU216HW,2013-04-30 00:58:00,
2013-04-29 21:03:00,65.1,52.5,29.83,SE,135,0.0,0.0,64,0.00,,,0.00,WUHU216HW,2013-04-30 01:03:00,
2013-04-29 21:08:00,64.5,52.6,29.83,SE,135,0.0,0.0,65,0.00,,,0.00,WUHU216HW,2013-04-30 01:08:00,
2013-04-29 21:13:00,64.2,52.1,29.83,SE,135,0.0,0.0,65,0.00,,,0.00,WUHU216HW,2013-04-30 01:13:00,
2013-04-29 21:18:00,64.0,51.9,29.83,SE,135,0.0,0.0,65,0.00,,,0.00,WUHU216HW,2013-04-30 01:18:00,
2013-04-29 21:23:00,63.3,51.7,29.83,SE,135,0.0,0.0,66,0.00,,,0.00,WUHU216HW,2013-04-30 01:23:00,
2013-04-29 21:28:00,63.1,51.9,29.83,SE,135,0.0,0.0,67,0.00,,,0.00,WUHU216HW,2013-04-30 01:28:00,
2013-04-29 21:33:00,62.7,51.6,29.83,SE,135,0.0,0.0,67,0.00,,,0.00,WUHU216HW,2013-04-30 01:33:00,
2013-04-29 21:38:00,62.4,51.7,29.84,SE,135,0.0,0.0,68,0.00,,,0.00,WUHU216HW,2013-04-30 01:38:00,
2013-04-29 21:43:00,61.8,51.2,29.84,SE,135,0.0,0.0,68,0.00,,,0.00,WUHU216HW,2013-04-30 01:43:00,
2013-04-29 21:48:00,61.7,51.0,29.84,SE,135,0.0,0.0,68,0.00,,,0.00,WUHU216HW,2013-04-30 01:48:00,
2013-04-29 21:53:00,61.3,50.7,29.84,SE,135,0.0,0.0,68,0.00,,,0.00,WUHU216HW,2013-04-30 01:53:00,
2013-04-29 21:58:00,60.9,50.8,29.84,SE,135,0.0,0.0,69,0.00,,,0.00,WUHU216HW,2013-04-30 01:58:00,
2013-04-29 22:03:00,60.8,50.6,29.84,SE,135,0.0,0.0,69,0.00,,,0.00,WUHU216HW,2013-04-30 02:03:00,
2013-04-29 22:08:00,60.4,50.7,29.84,SE,135,0.0,0.0,70,0.00,,,0.00,WUHU216HW,2013-04-30 02:08:00,
2013-04-29 22:13:00,60.4,50.7,29.85,SE,135,0.0,0.0,70,0.00,,,0.00,WUHU216HW,2013-04-30 02:13:00,
2013-04-29 22:18:00,60.0,50.3,29.85,SE,135,0.0,0.0,70,0.00,,,0.00,WUHU216HW,2013-04-30 02:18:00,
2013-04-29 22:23:00,59.7,50.3,29.85,SE,135,0.0,0.0,71,0.00,,,0.00,WUHU216HW,2013-04-30 02:23:00,
2013-04-29 22:28:00,59.5,50.1,29.85,SE,135,0.0,0.0,71,0.00,,,0.00,WUHU216HW,2013-04-30 02:28:00,
2013-04-29 22:33:00,59.3,50.3,29.85,SE,135,0.0,0.0,72,0.00,,,0.00,WUHU216HW,2013-04-30 02:33:00,
2013-04-29 22:38:00,58.8,49.8,29.85,SE,135,0.0,0.0,72,0.00,,,0.00,WUHU216HW,2013-04-30 02:38:00,
2013-04-29 22:43:00,58.8,49.8,29.85,SE,135,0.0,0.0,72,0.00,,,0.00,WUHU216HW,2013-04-30 02:43:00,
2013-04-29 22:48:00,58.8,49.8,29.85,SE,135,0.0,0.0,72,0.00,,,0.00,WUHU216HW,2013-04-30 02:48:00,
2013-04-29 22:53:00,58.4,49.8,29.85,SE,135,0.0,0.0,73,0.00,,,0.00,WUHU216HW,2013-04-30 02:53:00,
2013-04-29 22:58:00,58.2,49.6,29.85,SE,135,0.0,0.0,73,0.00,,,0.00,WUHU216HW,2013-04-30 02:58:00,
2013-04-29 23:03:00,57.9,49.2,29.85,SE,135,0.0,0.0,73,0.00,,,0.00,WUHU216HW,2013-04-30 03:03:00,
2013-04-29 23:08:00,57.7,49.4,29.85,SE,135,0.0,0.0,74,0.00,,,0.00,WUHU216HW,2013-04-30 03:08:00,
2013-04-29 23:13:00,57.5,49.2,29.85,SE,135,0.0,0.0,74,0.00,,,0.00,WUHU216HW,2013-04-30 03:13:00,
2013-04-29 23:18:00,57.3,49.1,29.85,SE,135,0.0,0.0,74,0.00,,,0.00,WUHU216HW,2013-04-30 03:18:00,
2013-04-29 23:23:00,57.0,48.7,29.85,SE,135,0.0,0.0,74,0.00,,,0.00,WUHU216HW,2013-04-30 03:23:00,
2013-04-29 23:28:00,56.8,48.5,29.85,SE,135,0.0,0.0,74,0.00,,,0.00,WUHU216HW,2013-04-30 03:28:00,
2013-04-29 23:33:00,56.4,48.5,29.85,SE,135,0.0,0.0,75,0.00,,,0.00,WUHU216HW,2013-04-30 03:33:00,
2013-04-29 23:38:00,56.3,48.4,29.85,SE,135,0.0,0.0,75,0.00,,,0.00,WUHU216HW,2013-04-30 03:38:00,
2013-04-29 23:43:00,56.1,48.2,29.85,SE,135,0.0,0.0,75,0.00,,,0.00,WUHU216HW,2013-04-30 03:43:00,
2013-04-29 23:48:00,56.1,48.2,29.85,SE,135,0.0,0.0,75,0.00,,,0.00,WUHU216HW,2013-04-30 03:48:00,
2013-04-29 23:53:00,55.9,48.4,29.85,SE,135,0.0,0.0,76,0.00,,,0.00,WUHU216HW,2013-04-30 03:53:00,
2013-04-29 23:58:00,55.7,48.2,29.85,SE,135,0.0,0.0,76,0.00,,,0.00,WUHU216HW,2013-04-30 03:58:00,